Location: Recife
(8.0585°S, 34.8848°W)
Time: 11:10:54
(UTC-03:00)

Altair - Pass Details

Date: 14 April 2026
Orbit: 1501 x 1682 km, 47.2° (Epoch: 20 May)

Event Time Altitude Azimuth Distance (km) Brightness Sun altitude
Rises 21:12:45 0° 332° (NNW) 4,651 10.3 -58.6°
Enters shadow 21:14:20 - 334° (NNW) 4,151 9.9 -59.0°
Reaches altitude 10° 21:15:54 10° 337° (NNW) 3,658 - -59.4°
Maximum altitude 21:24:44 53° 51° (NE) 1,791 - -61.6°
Drops below altitude 10° 21:33:34 10° 125° (SE) 3,667 - -63.7°
Sets 21:36:43 0° 130° (SE) 4,664 - -64.5°
